Location: Campillo
(40.8621°N, 4.2488°W)
Time: 12:41:49
(UTC+00:00)

Cosmos 1328 Rocket - Pass Details

Date: 11 May 2021
Orbit: 600 x 628 km, 82.5° (Epoch: 13 June)

Event Time Altitude Azimuth Distance (km) Brightness Sun altitude
Exits shadow 20:44:41 16° 164° (SSE) 1,631 5.2 -13.7°
Maximum altitude 20:47:59 49° 93° (E) 807 3.8 -14.2°
Drops below altitude 10° 20:52:16 10° 19° (NNE) 1,999 6.4 -14.8°
Sets 20:54:32 0° 14° (NNE) 2,906 7.4 -15.2°
